Temp
17 17 17 17 17 17 18 18 18 18 18 18 18 19 18 18 18 18 18 18 18 18 18 18 17 17 17 16 16 16 16 16 15 15 15 15 15 15 14 13 13 13 12 12 12 11 11 11 11 11 10 10 10 10 9 9 9 8 8 7 7 8 8 9 9 9 8 8 8
17 17 17 17 17 17 17 17 18 18 18 18 18 18 18 18 18 18 18 18 18 18 18 18 17 17 16 16 15 15 15 15 15 15 15 14 14 14 13 12 12 12 12 12 11 11 11 11 11 11 10 10 10 9 9 9 8 8 8 7 7 7 7 8 8 8 8 8 8
17 17 17 17 17 17 17 17 17 18 18 18 18 18 18 18 18 18 17 17 17 17 17 17 17 17 16 16 15 15 14 14 14 14 14 14 13 13 12 12 12 12 12 11 11 11 11 11 11 10 10 9 9 9 9 8 8 7 7 7 6 6 6 6 7 7 7 7 7
17 17 17 17 17 17 17 17 17 18 18 18 18 18 18 18 17 17 17 17 17 17 17 17 16 16 16 16 15 15 14 14 14 14 13 13 13 13 12 11 11 11 11 11 11 11 11 11 11 10 10 9 9 9 8 8 7 7 6 6 6 6 6 6 6 6 6 6 7
16 17 17 17 17 17 17 17 17 18 18 18 18 18 18 18 18 17 17 16 16 16 16 16 16 16 16 15 15 14 14 14 13 13 13 13 13 12 12 11 11 11 11 11 11 11 11 11 10 10 9 9 9 8 8 8 7 6 6 6 6 6 6 6 6 6 6 6 6
16 16 16 16 17 17 17 17 17 17 17 17 18 18 18 18 18 18 17 17 16 16 16 16 15 15 15 15 14 14 13 13 13 13 12 12 12 12 12 11 11 11 10 10 10 10 10 10 9 9 9 8 8 8 8 7 7 6 6 6 6 6 6 6 6 5 5 5 4
16 16 16 16 16 16 16 16 17 17 17 17 17 17 17 18 18 18 17 17 17 16 16 15 15 14 14 14 14 13 13 13 12 12 12 12 12 11 11 11 10 10 10 10 9 9 9 9 8 8 8 8 7 7 7 6 6 6 6 6 5 5 5 5 5 5 4 4 3
16 16 16 16 16 16 16 16 16 16 16 16 16 17 17 17 17 17 17 17 17 16 15 15 14 14 14 14 13 13 13 12 12 12 11 11 11 11 11 10 10 10 9 9 9 9 8 8 8 8 7 7 7 7 6 6 6 6 6 6 5 5 5 5 4 4 3 3 2
15 15 16 16 16 16 16 16 16 16 16 16 16 16 16 16 17 17 17 17 17 16 15 15 14 14 13 13 13 13 12 12 11 11 11 11 11 10 10 10 10 9 9 9 8 8 8 8 7 7 7 7 7 6 6 6 6 6 6 5 5 4 4 4 4 3 2 2 2
15 15 15 15 16 16 16 16 16 16 16 16 16 16 15 15 16 16 16 16 16 16 15 14 14 14 13 13 13 12 12 12 11 11 11 11 11 10 10 10 9 9 8 8 8 8 7 7 7 7 7 7 6 6 6 6 6 6 5 5 4 4 3 3 3 2 2 1 1
14 14 15 15 15 15 15 16 16 16 16 16 16 15 15 15 15 15 15 15 15 15 14 14 14 13 13 12 12 12 11 11 11 11 11 11 11 10 10 10 9 9 8 8 7 7 7 7 7 6 6 6 6 6 6 6 6 5 5 4 4 3 3 2 2 2 1 1 1
13 14 14 14 15 15 15 15 15 15 15 15 15 15 15 15 14 14 14 14 14 14 14 13 13 13 12 12 11 11 11 11 11 11 11 11 10 10 9 9 9 8 8 7 7 7 7 6 6 6 6 6 6 6 6 5 5 5 4 4 3 3 2 2 1 1 1 1 1
13 13 13 14 14 14 14 14 14 14 14 15 15 15 15 15 14 14 14 13 13 13 13 13 13 12 11 11 11 10 10 10 10 10 10 10 9 9 9 8 8 7 7 7 7 6 6 6 6 6 6 6 6 6 5 5 5 4 4 3 3 2 2 2 1 1 1 1 1
12 13 13 13 13 13 14 14 14 14 14 14 14 14 14 14 14 14 14 13 13 13 13 13 12 11 11 10 10 10 10 10 10 10 9 9 9 8 8 7 7 7 6 6 6 6 6 6 6 6 6 6 5 5 5 4 4 4 3 3 2 2 2 1 1 1 1 1 0
12 12 12 12 13 13 13 13 13 13 13 13 12 12 12 12 13 13 13 13 13 13 12 12 11 11 10 10 9 9 9 9 9 9 8 8 8 7 7 6 6 6 6 6 5 5 5 6 6 6 6 5 5 4 4 3 3 3 3 2 2 2 1 1 1 0 0 0 0
11 11 12 12 12 12 12 12 12 12 12 11 11 11 11 11 12 12 12 12 12 12 11 11 10 10 9 9 9 8 8 8 8 7 7 7 7 6 6 6 5 5 5 5 5 5 5 5 5 5 5 5 4 4 3 3 2 2 2 2 1 1 1 1 0 0 0 0 1
11 11 11 11 11 11 11 11 11 10 10 10 10 10 10 10 10 11 11 11 11 10 10 9 9 9 9 8 8 7 7 7 6 6 6 6 6 5 5 5 5 5 5 5 5 5 5 5 5 4 4 4 3 3 2 2 2 2 1 1 1 1 0 0 0 0 1 1 1
10 10 10 11 10 10 10 10 10 9 9 9 9 9 9 9 10 10 10 10 9 9 9 8 8 8 8 7 7 6 6 6 6 6 5 5 5 5 5 4 4 4 4 4 5 5 4 4 4 3 3 3 3 2 2 2 1 1 1 1 0 0 0 0 0 1 1 1 1
10 10 10 10 9 9 9 9 9 9 9 9 9 9 9 8 9 9 9 8 8 8 8 7 7 7 7 6 6 6 5 5 5 5 5 4 4 4 4 4 4 4 4 4 4 4 4 3 3 3 2 2 2 1 1 1 1 1 0 0 0 0 0 0 0 1 1 1 1
9 9 9 9 9 8 8 8 8 8 8 8 8 8 8 8 8 8 7 7 7 7 7 7 6 6 6 5 5 5 5 4 4 4 4 4 3 3 3 3 3 3 3 3 3 3 3 2 2 2 2 2 1 1 1 1 0 0 0 0 0 0 0 0 0 0 0 0 1
8 8 8 8 8 8 7 7 7 7 7 7 7 7 7 7 7 7 6 6 6 7 7 7 6 6 5 5 4 4 4 4 4 3 3 3 3 3 3 3 3 3 3 3 3 2 2 2 2 2 1 1 1 1 1 0 0 0 0 0 0 0 0 0 0 0 0 0 0
7 7 7 7 7 7 6 6 6 6 6 6 6 6 6 6 6 6 6 6 6 6 6 6 6 5 5 4 4 4 3 3 3 3 3 3 2 2 2 2 2 2 2 2 2 2 2 1 1 1 1 1 1 1 0 0 0 0 0 0 0 0 0 0 0 0 0 0 0
6 6 6 6 6 6 6 5 5 5 5 5 5 5 5 5 5 5 5 5 5 4 4 4 5 4 4 4 3 3 3 3 3 3 3 3 2 2 2 2 2 2 2 2 1 1 1 1 1 1 1 1 0 0 0 0 0 -0 -0 -0 -0 0 0 0 0 0 0 0 0
5 5 5 5 5 5 5 5 5 4 4 4 4 4 4 4 4 4 4 4 4 4 4 3 3 3 3 3 3 3 3 3 3 3 3 3 3 3 3 2 2 2 1 1 1 1 1 1 1 1 0 0 0 0 -0 -0 -0 -0 -0 -0 -0 -0 -0 -0 -0 -0 -0 -0 -0
5 5 5 4 4 4 4 4 4 4 3 3 3 3 3 3 3 3 3 3 3 3 3 3 3 3 3 3 3 3 3 3 3 3 3 3 3 3 2 2 2 2 1 1 1 1 1 1 1 0 0 0 -0 -0 -0 -0 -0 -0 -0 -0 -0 -0 -0 -0 -0 -0 -0 -0 -0
4 4 4 4 4 4 4 4 3 3 3 3 3 3 3 3 3 3 3 3 2 2 2 2 2 2 2 3 3 3 3 3 3 3 2 2 2 2 2 2 1 1 1 1 1 1 1 1 0 0 0 -0 -0 -0 -0 -0 -0 -0 -0 -0 -0 -0 -0 -0 -0 -0 -0 -0 -0
3 3 3 3 3 3 3 3 3 3 3 3 2 2 2 2 2 2 2 2 2 2 2 2 2 2 2 2 2 2 2 2 2 2 2 1 1 1 1 1 1 1 1 1 1 1 0 0 0 0 -0 -0 -0 -0 -0 -0 -0 -0 -0 -0 -0 -0 -0 -1 -1 -1 -1 -1 -1
3 3 3 3 3 2 2 2 2 2 2 2 2 2 2 2 2 2 2 2 2 2 2 2 2 2 2 2 2 1 1 1 1 1 1 1 1 1 1 1 1 1 1 1 1 0 0 0 -0 -0 -0 -0 -0 -0 -0 -0 -0 -0 -0 -1 -1 -1 -1 -1 -1 -1 -1 -1 -1
2 2 2 2 2 2 2 2 2 2 2 2 2 2 2 2 2 2 2 2 2 2 1 1 1 1 1 1 1 1 1 1 1 1 1 1 1 1 1 1 1 1 1 1 1 0 0 -0 -0 -0 -0 0 0 -0 -0 -0 -1 -1 -1 -1 -1 -1 -1 -1 -1 -1 -2 -2 -2
2 2 2 2 1 1 1 1 1 1 1 1 1 1 1 1 1 1 1 1 1 1 1 1 1 1 1 1 1 1 1 1 1 1 1 1 1 1 1 1 1 1 1 1 0 0 0 -0 -0 -0 -0 0 0 -0 -0 -1 -1 -1 -1 -1 -1 -1 -2 -2 -2 -2 -2 -2 -2
1 1 1 1 1 1 1 1 1 1 1 1 1 1 1 1 1 1 1 1 1 1 1 1 1 1 1 1 1 1 1 1 1 1 1 1 1 1 1 1 1 1 1 1 0 0 -0 -0 -0 -0 -0 -0 -0 -0 -1 -1 -1 -1 -1 -2 -2 -2 -2 -2 -2 -2 -3 -3 -3
1 1 1 1 1 1 1 1 1 1 1 1 1 1 1 1 1 1 1 1 1 1 1 1 1 1 1 1 1 1 1 1 1 1 1 1 1 1 1 1 1 1 0 0 -0 -0 -1 -1 -1 -1 -0 -0 -1 -1 -1 -1 -1 -2 -2 -2 -2 -2 -2 -3 -3 -3 -3 -3 -3
1 1 1 1 1 1 1 1 1 1 1 1 1 0 0 0 0 0 0 1 1 1 1 1 1 1 1 1 1 1 1 1 1 1 1 1 1 1 0 0 0 -0 -0 -0 -1 -1 -1 -1 -1 -1 -1 -1 -1 -1 -1 -1 -2 -2 -2 -3 -3 -3 -3 -3 -3 -3 -3 -3 -3
1 1 1 1 1 1 1 0 0 0 0 0 0 0 0 0 0 0 0 0 0 1 1 1 1 1 1 1 1 1 1 1 1 1 1 0 0 -0 -0 -0 -1 -1 -1 -1 -1 -1 -1 -1 -1 -1 -1 -1 -1 -1 -2 -2 -2 -2 -3 -3 -3 -3 -3 -3 -3 -3 -3 -3 -3
1 0 0 0 0 0 0 0 0 0 0 0 0 0 -0 -0 -0 0 0 0 0 0 0 0 0 1 1 1 1 1 1 1 1 0 0 -0 -0 -1 -1 -1 -1 -1 -1 -1 -1 -1 -1 -1 -1 -1 -1 -1 -2 -2 -2 -2 -3 -3 -3 -3 -3 -3 -3 -3 -3 -3 -3 -3 -3
0 0 0 0 0 0 0 0 0 -0 -0 -0 -0 -0 -0 -0 -0 -0 -0 -0 -0 -0 -0 0 0 0 0 0 0 0 0 0 0 -0 -0 -1 -1 -1 -1 -1 -1 -1 -2 -2 -2 -2 -2 -2 -2 -2 -2 -2 -2 -2 -3 -3 -3 -3 -3 -3 -3 -3 -3 -3 -3 -3 -3 -3 -3
0 0 0 -0 -0 -0 -0 -0 -0 -0 -0 -0 -0 -1 -1 -0 -0 -0 -0 -0 -0 -0 -0 -0 -0 -0 -0 -0 -0 -0 -0 -0 -0 -0 -1 -1 -1 -1 -1 -2 -2 -2 -2 -2 -2 -2 -2 -2 -2 -2 -2 -2 -2 -3 -3 -3 -3 -3 -3 -3 -3 -3 -3 -3 -3 -3 -3 -3 -3
-0 -0 -0 -0 -0 -0 -0 -1 -1 -1 -1 -1 -1 -1 -1 -1 -1 -0 -0 -0 -0 -0 -0 -0 -0 -0 -0 -0 -0 -0 -0 -0 -1 -1 -1 -1 -1 -1 -2 -2 -2 -2 -2 -3 -3 -3 -2 -2 -2 -2 -2 -2 -3 -3 -3 -3 -3 -3 -3 -3 -3 -3 -3 -3 -3 -3 -3 -4 -4
-0 -0 -0 -1 -1 -1 -1 -1 -1 -1 -1 -1 -1 -1 -1 -1 -1 -1 -1 -0 -0 -1 -1 -1 -1 -1 -0 -0 -0 -0 -0 -1 -1 -1 -1 -1 -1 -1 -2 -2 -2 -3 -3 -3 -3 -2 -2 -2 -2 -2 -2 -2 -2 -3 -3 -3 -3 -3 -3 -3 -3 -3 -3 -3 -3 -3 -3 -4 -4
-1 -1 -1 -1 -1 -1 -1 -1 -1 -1 -1 -1 -1 -1 -1 -1 -1 -1 -1 -1 -1 -1 -1 -1 -1 -0 -0 0 0 -0 -0 -0 -1 -1 -1 -1 -1 -1 -2 -2 -2 -2 -2 -2 -2 -2 -2 -2 -2 -2 -2 -2 -2 -2 -2 -2 -2 -3 -3 -3 -3 -3 -3 -3 -3 -3 -3 -4 -4
-1 -1 -1 -1 -1 -1 -1 -1 -1 -1 -1 -1 -1 -1 -1 -1 -1 -1 -1 -1 -1 -1 -1 -0 -0 -0 0 0 0 -0 -0 -0 -0 -1 -1 -1 -1 -1 -2 -2 -2 -2 -2 -2 -2 -2 -2 -2 -2 -2 -2 -2 -2 -2 -2 -2 -2 -2 -3 -3 -3 -3 -3 -3 -3 -3 -3 -3 -4
Height
761 762 762 762 762 763 763 763 763 763 763 764 764 764 764 764 764 764 764 764 765 765 765 765 766 766 767 767 767 767 767 767 767 767 768 768 768 768 769 769 769 769 770 770 770 769 769 770 771 773 774 774 775 776 776 777 777 778 779 780 781 781 780 781 782 784 787 789 791
761 761 761 761 761 761 762 762 762 762 762 762 762 762 762 763 763 763 763 763 763 764 764 764 764 764 765 766 766 765 765 765 766 766 766 766 766 766 767 768 767 768 769 769 769 769 769 769 771 772 773 773 774 775 775 776 776 777 778 779 779 780 780 780 780 781 783 785 787
761 761 761 761 761 761 761 761 761 761 761 761 761 761 761 761 761 761 761 762 762 762 762 763 763 763 764 764 764 764 764 764 764 764 764 764 764 765 766 766 766 766 767 767 767 767 768 769 770 771 772 772 773 773 774 775 776 777 777 778 779 779 780 780 780 781 781 783 784
760 760 760 760 760 760 760 760 759 759 759 760 760 760 760 760 760 760 760 760 760 761 761 761 762 762 763 763 763 763 763 763 764 764 763 763 763 764 765 765 764 764 764 764 765 766 768 769 769 770 771 771 771 772 773 773 774 775 776 777 778 779 779 780 780 781 781 782 783
760 760 760 760 760 760 760 759 759 759 759 759 759 759 759 759 759 759 759 759 759 759 760 760 761 761 761 762 762 762 762 762 762 763 762 762 762 763 763 763 763 763 763 764 764 765 766 767 768 769 769 770 770 770 771 772 773 774 775 776 777 778 779 779 780 780 781 781 782
760 759 759 759 759 759 759 759 759 758 758 758 757 757 757 757 757 757 757 758 758 758 759 759 759 759 760 760 760 760 760 761 761 761 761 761 761 762 762 762 762 763 763 763 764 764 764 765 766 767 768 769 769 769 770 770 772 773 774 776 777 778 778 779 779 779 780 780 781
759 759 759 759 758 758 758 758 758 758 757 757 757 756 756 756 756 756 756 756 757 757 757 758 758 758 759 759 759 759 759 759 760 760 760 760 760 760 761 761 762 762 762 763 763 763 764 764 765 766 767 768 769 769 769 770 771 772 774 774 775 776 777 778 778 779 779 779 781
758 758 758 758 757 757 757 757 757 756 756 756 756 755 755 755 755 755 755 755 755 755 756 756 757 757 757 757 758 758 758 758 759 759 759 759 759 760 760 761 761 761 762 762 763 763 763 764 765 766 766 767 768 768 769 770 771 772 773 774 774 775 776 777 777 778 779 779 781
758 758 757 757 757 756 756 756 756 755 755 755 755 755 754 754 754 754 754 754 754 754 754 755 755 756 756 756 756 756 757 757 757 757 758 758 759 759 760 760 760 761 761 762 762 763 763 764 764 765 766 766 767 767 768 769 771 771 772 773 774 775 775 776 777 778 779 780 781
757 757 757 756 756 756 756 755 755 754 754 754 754 754 754 754 754 754 753 753 753 753 754 754 754 754 754 754 755 755 755 755 756 756 757 757 758 759 759 759 760 760 761 761 762 762 763 764 764 765 765 766 766 767 768 769 770 771 772 773 774 774 775 776 777 778 779 780 782
757 756 756 756 755 755 755 755 754 754 754 753 753 753 753 753 753 753 753 752 752 752 753 753 753 753 753 754 754 754 754 754 755 755 756 757 758 758 759 759 759 760 760 761 761 762 763 764 764 764 765 765 766 767 768 769 770 771 772 772 773 774 775 776 777 778 779 781 782
757 756 756 755 755 755 754 754 754 754 754 753 752 752 751 751 752 752 752 752 752 752 752 752 752 752 752 753 753 753 753 754 754 755 755 756 757 758 758 759 759 759 760 760 761 762 763 763 764 764 765 765 766 767 768 769 770 770 771 772 773 774 775 776 778 779 780 781 783
757 756 755 755 754 754 754 754 754 753 753 753 752 752 751 750 750 750 750 751 751 751 751 751 751 751 751 752 752 752 753 753 754 754 755 756 757 757 758 758 759 759 759 760 760 761 762 763 763 764 765 766 767 768 768 769 769 770 771 772 773 774 775 777 778 779 780 782 783
756 756 755 754 754 754 754 753 753 753 753 753 752 752 751 750 749 749 749 749 750 750 750 750 750 751 751 751 752 752 752 753 754 754 755 756 756 757 757 758 758 759 759 759 760 761 762 762 763 764 765 766 767 767 768 769 770 770 771 772 773 774 776 777 778 779 781 782 783
756 756 755 754 754 754 753 753 753 753 753 753 752 751 751 750 749 749 749 749 749 749 749 749 749 749 750 751 752 752 753 753 754 754 755 755 756 757 757 758 758 758 759 759 760 761 761 763 764 764 765 766 766 767 768 769 770 771 771 772 773 775 776 777 779 780 781 782 783
756 756 755 754 754 754 754 753 753 753 753 752 752 751 751 750 750 749 749 749 749 749 749 749 749 749 749 750 752 753 754 754 754 754 755 755 756 756 757 757 758 758 759 759 760 761 762 763 764 764 765 766 766 767 768 769 770 771 772 773 774 775 776 777 779 780 782 783 784
757 756 756 755 755 754 754 754 754 753 753 752 751 751 751 750 750 750 749 749 749 749 749 749 749 749 748 749 751 753 754 755 755 756 756 756 756 756 757 757 758 758 759 759 760 761 762 763 764 764 765 766 767 768 769 769 770 771 773 774 775 776 777 778 780 781 783 784 785
757 757 756 756 755 755 755 754 754 754 753 753 752 752 751 751 751 750 750 750 750 750 750 750 750 749 749 749 752 754 755 756 757 757 757 758 758 758 758 758 758 759 759 760 761 762 762 763 764 764 765 766 767 769 769 770 771 772 774 775 777 778 779 780 781 783 784 785 786
758 758 757 757 756 756 755 755 754 754 754 753 753 753 752 752 751 751 751 751 751 751 751 751 751 750 750 750 753 755 757 758 759 759 759 760 760 760 760 760 760 760 760 761 761 762 763 763 764 765 766 767 768 769 770 771 772 773 775 776 778 779 780 782 783 784 784 785 786
759 758 758 757 757 756 756 755 755 755 754 754 754 754 753 753 752 752 752 752 752 752 751 751 751 751 751 752 754 756 758 759 759 760 761 761 762 763 763 763 763 762 762 762 762 763 763 764 765 766 767 768 769 770 771 772 773 774 776 777 779 780 781 782 783 784 785 785 786
759 759 759 758 758 757 757 757 756 756 755 755 755 754 754 754 753 753 753 753 753 752 751 750 751 752 753 754 754 756 757 759 760 761 762 763 764 764 765 766 766 765 764 764 764 764 764 765 766 767 768 769 770 771 772 773 774 775 776 778 779 780 781 783 784 784 785 786 787
760 759 759 759 759 758 758 758 758 757 757 756 756 756 755 755 754 754 754 754 754 754 752 750 750 752 754 754 755 756 758 759 760 761 762 763 764 766 767 768 769 768 768 767 766 766 766 767 767 768 769 770 771 772 773 774 775 776 777 778 779 780 782 783 784 785 785 786 787
760 760 760 759 759 759 759 759 759 758 758 758 757 757 757 756 756 756 756 755 755 754 754 752 751 752 754 756 757 758 759 759 760 761 762 763 764 765 767 769 770 771 771 770 769 768 768 768 769 769 770 771 772 773 774 775 776 777 778 779 780 781 782 784 785 785 786 787 788
761 761 761 760 760 760 760 759 759 759 759 759 759 759 758 758 758 757 757 756 756 755 754 754 754 755 756 757 758 759 760 761 762 762 763 764 764 765 766 768 770 771 772 772 771 770 769 769 770 771 772 772 773 774 775 776 777 778 779 779 781 782 783 784 785 786 787 787 788
762 762 762 761 761 761 760 760 760 760 760 760 760 759 759 759 758 758 757 757 756 756 755 756 757 757 758 759 760 760 761 762 763 763 764 764 764 765 766 768 769 771 772 773 773 772 771 770 771 772 772 773 774 775 776 777 778 779 779 781 782 783 784 785 786 786 787 788 789
763 763 763 762 762 762 762 761 761 761 761 761 761 760 760 759 759 759 758 757 757 757 758 758 759 760 760 761 761 762 763 763 764 764 764 765 765 766 767 768 769 771 772 773 774 774 773 772 772 773 773 774 775 776 777 778 779 780 781 782 783 784 784 785 786 787 788 788 789
764 764 764 763 763 763 763 763 762 762 762 762 762 761 761 761 760 759 759 759 759 759 759 760 761 762 763 763 764 764 765 765 766 766 766 766 766 767 768 769 770 772 773 774 774 775 774 774 774 774 775 775 776 777 778 779 780 781 782 783 784 784 785 786 787 787 788 789 789
765 765 764 764 764 764 764 764 763 763 763 763 763 763 763 762 762 761 761 761 761 761 762 762 763 764 765 765 766 767 767 768 768 769 769 768 769 769 769 770 772 773 774 775 775 776 776 776 776 776 776 777 777 778 779 780 781 782 783 784 784 785 786 786 787 788 788 789 790
766 766 765 765 765 765 765 765 764 764 764 764 765 764 764 764 764 763 763 763 763 763 764 764 765 766 766 767 768 769 769 770 770 771 771 771 771 771 772 773 774 774 775 776 776 777 777 777 777 777 778 778 779 779 780 781 782 783 784 785 785 786 786 787 788 788 789 789 790
767 766 766 766 766 767 766 766 766 766 766 766 766 766 766 765 765 765 765 765 765 765 766 766 767 767 768 769 770 771 771 772 773 773 773 773 773 774 774 775 776 776 777 777 778 778 778 778 779 779 779 779 780 780 781 782 783 784 785 785 786 787 787 788 788 789 789 790 790
768 767 767 768 768 768 768 768 767 767 767 767 767 767 767 767 767 767 767 767 767 768 768 768 768 769 770 771 771 772 773 774 774 775 775 775 775 776 777 778 778 779 779 779 779 779 779 779 779 780 780 780 781 781 782 783 784 785 786 786 787 788 788 788 789 789 789 790 790
769 769 769 769 769 769 769 769 769 768 768 768 768 768 768 768 769 769 769 769 769 769 770 770 770 771 772 772 773 774 774 775 776 777 777 778 778 778 779 779 780 781 781 781 781 781 781 781 781 781 781 781 782 783 784 784 785 786 787 787 788 788 789 789 789 789 790 790 791
770 770 770 770 770 770 770 770 770 770 769 769 769 769 769 769 769 770 770 771 771 771 772 772 772 773 774 774 775 775 776 777 778 779 779 779 780 780 781 781 782 783 783 783 782 782 782 782 782 782 782 783 783 784 784 785 786 787 788 788 789 789 789 789 790 790 790 791 792
771 771 771 771 771 771 771 771 771 771 771 771 771 771 771 771 771 771 772 772 772 773 773 774 774 775 775 776 776 777 778 779 780 780 781 781 782 782 782 783 784 784 784 784 784 784 783 783 783 783 784 784 784 785 786 786 787 788 788 789 789 789 790 790 790 791 791 792 792
773 772 772 772 772 772 772 772 772 772 772 772 772 773 773 772 773 773 773 773 774 774 774 775 776 776 777 777 778 779 779 780 781 782 783 783 783 784 784 785 786 786 786 785 785 785 785 784 784 784 785 785 785 786 787 787 788 789 789 789 790 790 791 791 791 792 792 792 793
774 774 773 773 773 773 774 774 774 774 774 774 774 774 774 774 774 774 774 774 775 775 776 776 777 777 778 778 779 780 781 782 783 784 784 785 785 785 786 787 787 787 787 787 786 786 786 786 786 786 786 786 786 787 788 788 789 789 790 790 791 791 791 792 792 792 793 793 793
775 775 774 774 774 775 775 775 774 774 774 775 775 775 776 776 776 776 776 776 776 777 777 778 778 779 779 780 781 782 783 784 784 785 786 787 787 787 788 788 789 789 789 788 788 787 787 787 787 787 787 787 788 788 789 789 790 790 791 791 792 792 792 792 793 793 793 793 793
776 776 776 776 776 776 776 776 776 776 776 776 777 777 777 778 778 778 778 778 778 778 779 779 780 780 781 781 782 783 784 785 786 787 788 788 789 789 789 789 789 790 789 789 789 789 788 788 788 788 788 788 789 789 790 790 791 792 792 792 793 793 793 793 793 793 793 793 793
777 777 777 777 777 777 777 777 777 777 777 778 778 778 779 779 779 779 779 779 779 779 780 780 781 782 783 783 784 785 786 787 788 788 789 790 790 790 790 790 790 791 790 790 790 790 789 789 789 789 789 789 790 790 791 792 792 792 793 793 793 794 794 794 794 794 794 794 793
778 778 778 778 778 778 778 778 779 779 779 779 779 779 780 780 780 780 780 780 780 781 781 782 783 784 784 785 786 786 787 788 789 789 790 791 791 791 791 791 791 791 791 791 791 791 791 791 791 791 791 791 791 792 792 792 793 793 793 794 794 794 794 794 794 794 794 794 793
779 779 779 779 779 779 779 779 780 780 780 781 781 781 781 781 782 782 782 782 782 783 783 784 784 785 786 787 787 788 789 790 790 791 791 791 792 792 792 792 792 792 792 792 792 792 792 792 792 792 792 792 792 793 793 793 793 794 794 794 794 794 794 794 794 794 794 794 794
Wind_Speed
2 5 8 10 11 11 12 13 14 14 15 15 16 16 16 17 17 17 17 17 18 18 18 18 19 20 21 22 22 22 21 21 21 22 22 22 22 21 21 21 21 21 22 23 25 27 27 27 28 28 28 28 29 29 30 31 32 32 32 32 32 33 35 36 37 37 36 34 32
6 3 3 6 8 10 11 12 13 14 14 15 15 16 16 16 17 17 17 17 17 17 17 17 18 18 19 21 21 22 23 24 24 24 24 24 23 22 20 20 21 22 24 26 28 28 27 26 27 27 27 27 27 28 28 29 30 30 30 31 32 32 33 35 36 37 37 36 35
10 8 6 4 5 7 9 10 12 13 14 15 15 15 16 16 17 17 17 16 16 16 16 16 17 17 18 20 21 22 24 25 25 26 26 27 26 24 21 21 23 26 28 29 29 28 26 26 26 27 27 27 27 27 27 28 28 28 29 30 31 31 32 33 34 35 36 35 34
11 10 9 6 4 5 7 9 10 12 13 14 15 15 15 15 16 16 17 17 16 16 17 17 17 16 17 19 21 22 24 24 25 25 27 28 28 26 24 25 26 28 29 29 28 27 27 28 27 27 27 27 27 27 27 27 27 27 28 29 30 30 31 32 33 33 33 33 33
9 10 9 8 6 5 6 7 9 11 12 13 14 14 15 15 16 16 16 16 16 17 17 17 17 17 17 17 19 21 22 23 23 24 25 27 28 27 26 27 28 29 29 28 27 27 28 28 27 27 27 27 26 26 27 28 27 27 27 28 29 30 30 31 32 32 31 30 30
8 9 9 9 9 8 7 7 8 9 10 11 13 14 15 15 15 15 15 16 16 17 18 18 17 18 19 18 19 20 21 22 22 22 23 25 26 27 27 27 28 28 28 27 26 25 25 26 26 26 26 25 25 26 27 28 27 26 26 27 28 29 29 30 30 30 29 27 26
9 9 9 10 10 9 9 8 8 8 9 10 12 14 15 15 15 15 15 15 15 15 16 17 18 19 20 21 21 21 21 21 21 22 23 24 25 25 26 27 27 27 26 26 25 24 24 24 24 24 24 24 24 25 26 26 25 25 26 26 27 28 28 28 27 27 26 25 24
10 10 10 10 10 10 10 10 10 9 8 9 10 12 14 15 15 16 16 15 14 14 15 16 17 18 19 21 21 22 21 21 20 21 22 23 24 24 25 25 25 25 25 25 24 24 23 23 23 23 22 22 23 23 24 23 24 24 25 26 26 26 26 25 24 23 23 23 23
10 10 11 11 11 10 10 10 10 10 9 9 9 10 12 13 14 15 15 15 13 13 14 16 17 17 19 20 21 21 21 20 20 20 21 23 23 23 24 24 24 24 24 24 23 23 23 22 22 22 21 21 21 22 22 23 23 24 25 25 24 23 23 22 21 21 22 22 22
11 12 12 11 11 10 10 10 10 11 10 10 9 9 10 11 12 13 13 13 13 13 15 16 17 18 19 19 19 19 19 20 20 21 21 22 23 23 23 24 23 23 23 23 22 22 21 20 20 20 20 21 21 21 22 22 23 24 24 23 22 21 20 20 19 20 21 21 21
12 12 12 11 11 10 10 10 10 10 10 10 9 8 8 8 10 11 11 12 13 14 16 17 17 17 17 18 17 17 18 19 20 21 21 22 22 23 23 23 23 23 22 22 21 20 19 19 19 19 19 19 20 20 21 22 23 24 23 22 21 20 19 18 18 19 21 21 21
13 13 12 12 11 10 10 10 10 9 9 9 8 8 7 7 8 9 11 12 13 15 16 16 16 15 16 16 16 16 17 18 20 20 20 21 21 21 22 22 22 21 21 21 20 19 19 18 18 19 19 18 19 20 21 22 23 23 22 20 20 19 19 18 19 19 20 21 21
13 13 13 12 11 10 9 9 9 9 8 8 8 7 7 7 7 8 9 11 12 14 15 15 14 14 14 15 16 16 17 18 19 19 18 18 19 19 19 19 19 19 19 19 19 19 19 18 18 18 19 19 19 20 21 22 22 22 21 20 19 19 19 19 19 19 20 21 21
13 13 13 12 11 10 9 8 8 8 7 7 7 7 8 8 7 7 7 9 11 13 13 13 13 12 13 13 15 16 17 17 17 17 16 16 17 17 17 16 17 17 18 18 18 18 19 18 18 18 19 19 19 20 20 20 20 20 20 19 19 19 19 19 20 20 21 22 22
13 13 13 12 11 10 9 8 7 6 6 7 7 7 6 6 6 6 7 9 11 12 12 12 12 12 12 12 13 13 14 14 15 15 15 15 15 15 15 15 16 16 17 17 18 18 18 18 18 18 19 19 19 19 19 18 18 18 18 19 20 20 20 20 21 21 22 23 23
13 13 13 12 11 10 9 8 7 6 6 6 6 5 4 4 4 5 6 8 10 11 12 11 12 12 12 11 11 11 11 12 13 13 14 14 14 14 14 15 15 16 17 17 17 17 17 18 18 18 19 19 18 18 17 17 17 17 18 19 20 20 21 21 21 22 22 22 21
13 12 12 11 10 10 9 8 8 7 6 5 4 3 3 2 2 3 5 6 8 9 10 10 11 11 11 10 10 10 10 10 11 11 12 13 13 14 14 15 15 15 16 17 17 17 17 17 17 17 17 17 16 16 16 16 17 17 18 19 19 20 20 21 21 21 21 20 19
12 11 11 10 10 9 9 8 7 6 6 5 4 3 2 2 1 2 3 5 6 7 8 9 9 9 9 9 9 8 8 8 9 9 10 11 12 13 14 14 15 15 16 16 16 16 16 16 16 15 15 15 15 15 16 16 17 18 18 19 19 19 19 19 19 19 18 18 17
11 11 11 10 10 9 7 6 6 5 5 5 4 3 3 3 2 3 3 5 6 7 8 8 8 8 8 8 8 7 7 6 6 7 7 8 9 10 11 12 13 14 15 15 15 15 15 15 15 15 15 15 16 16 16 17 18 19 19 20 19 19 18 18 17 17 16 16 16
11 11 11 11 10 9 7 6 6 5 5 4 4 3 2 2 3 4 5 5 6 7 8 8 8 8 8 9 9 8 7 7 7 7 7 7 8 8 9 11 12 13 14 14 14 14 14 14 15 15 16 16 17 17 18 19 19 20 20 20 19 19 18 17 17 16 16 15 15
11 11 11 11 10 9 8 7 7 6 5 4 4 3 4 4 4 5 6 6 7 8 8 9 9 9 9 10 10 10 9 9 9 9 9 8 9 9 9 10 11 12 13 13 14 14 15 15 15 16 16 17 18 19 19 20 21 21 21 20 20 19 18 18 16 15 15 14 14
11 11 10 10 9 9 8 8 8 7 6 6 6 6 6 6 7 8 8 8 8 9 9 10 10 10 10 10 11 11 11 11 11 11 11 11 11 10 10 10 11 11 12 13 14 15 15 16 16 16 17 18 18 19 20 20 21 21 20 19 19 18 17 16 15 14 13 12 12
10 9 9 8 8 8 8 8 8 8 8 9 9 9 8 9 9 9 9 9 10 10 11 11 11 11 11 11 11 12 12 13 13 13 12 13 13 12 12 11 11 11 12 13 14 15 16 16 17 17 18 18 19 19 19 20 20 20 19 18 18 17 15 14 13 12 12 12 12
9 8 7 7 7 7 7 8 8 9 10 10 10 10 10 10 10 10 10 10 10 11 11 12 12 13 13 12 12 12 13 13 13 13 13 13 13 13 13 12 12 12 12 13 14 15 17 18 18 18 19 19 19 19 19 19 19 19 18 18 17 16 15 13 13 12 12 12 11
8 8 8 8 8 8 8 8 9 10 10 10 10 10 10 10 10 10 11 11 11 12 12 13 13 13 13 13 12 12 12 12 13 13 13 13 13 13 13 13 13 13 13 13 14 15 17 18 19 20 20 20 20 19 19 19 18 18 18 17 16 15 15 14 13 12 11 11 10
8 8 9 9 8 8 9 9 10 10 10 10 10 10 11 11 11 11 12 13 13 13 13 13 13 13 12 12 12 12 12 13 13 14 14 15 15 15 14 14 14 14 13 13 14 15 16 18 19 20 21 20 20 19 19 18 17 17 16 16 15 15 14 13 12 11 10 9 8
9 10 10 9 9 10 10 10 11 11 11 11 11 11 11 11 11 11 12 13 14 14 14 14 13 13 12 12 12 13 13 14 14 14 15 16 16 16 15 15 15 15 14 14 14 14 15 17 18 19 20 20 19 19 18 17 16 16 15 15 14 13 13 12 10 9 8 7 6
10 10 10 10 11 11 11 11 11 12 12 12 12 11 11 11 11 12 13 13 13 14 14 14 14 13 13 13 13 13 13 13 14 14 14 15 16 16 16 15 15 16 16 15 15 15 15 16 17 18 19 19 19 18 17 17 16 15 14 13 12 11 11 10 9 8 7 7 6
11 11 11 11 12 12 12 12 12 13 13 12 12 12 12 12 13 13 13 14 14 14 14 14 14 13 13 13 13 13 13 13 13 14 14 15 16 16 16 16 17 16 16 16 16 15 15 15 16 16 17 17 17 17 16 15 15 14 13 12 11 10 10 9 9 9 9 8 8
11 11 11 12 12 11 12 12 12 12 12 12 12 13 13 13 13 13 13 13 13 13 13 13 13 14 14 14 14 14 14 14 14 14 15 15 16 17 17 17 17 16 16 15 16 16 15 15 15 15 15 15 15 15 15 14 13 12 12 11 11 10 10 10 10 10 10 9 9
11 11 11 11 11 11 11 12 12 12 12 13 13 13 13 13 13 13 12 12 13 13 13 14 14 15 15 15 15 15 15 15 15 15 16 16 17 17 18 17 17 16 16 15 15 16 16 15 14 14 13 13 13 13 13 13 12 12 12 12 12 11 11 11 11 11 10 10 9
11 11 11 11 11 11 11 11 11 12 12 13 13 14 14 14 13 13 13 13 14 14 14 15 15 16 16 16 16 16 16 16 16 16 17 17 18 18 18 18 17 16 16 15 15 16 15 14 13 13 12 12 12 13 13 13 13 13 13 13 13 12 12 12 11 11 10 9 8
11 11 11 11 11 12 12 12 12 12 13 13 14 14 14 14 14 14 14 14 15 15 15 16 16 16 16 17 17 17 17 17 17 18 18 18 18 19 19 18 18 17 16 15 15 15 14 13 13 12 12 12 13 13 13 14 14 14 14 14 13 12 12 12 11 10 9 8 7
11 11 11 11 12 12 12 12 12 13 13 13 14 14 14 14 15 15 15 15 16 16 16 16 16 16 17 17 17 18 18 18 18 18 18 18 19 19 19 18 18 17 16 15 14 14 13 13 13 13 13 13 14 14 14 14 14 14 14 14 13 12 11 10 9 8 7 6 5
10 11 11 11 12 12 12 12 12 13 13 14 14 14 14 14 15 15 16 16 17 17 17 17 17 18 18 18 18 18 18 18 18 18 18 19 19 19 19 18 17 16 15 14 14 14 14 13 13 14 14 14 15 15 15 15 15 15 14 13 12 11 10 9 8 7 6 5 5
10 11 11 11 12 12 12 12 12 13 14 14 14 14 14 15 15 15 16 17 18 19 19 19 19 20 20 20 19 19 18 18 18 18 18 19 19 20 19 18 17 15 15 15 15 15 15 15 15 15 15 15 16 16 16 16 15 14 13 13 12 11 10 9 9 8 7 6 6
10 11 11 11 11 12 12 12 13 14 15 15 15 15 15 15 15 16 17 18 19 20 20 20 21 21 21 21 20 19 19 19 19 19 19 19 19 19 19 17 16 15 15 16 16 16 16 16 16 15 16 16 16 16 16 15 14 13 13 12 11 11 10 10 9 8 7 6 5
10 11 11 11 12 12 12 13 14 15 15 15 15 15 15 15 15 16 17 19 20 21 21 21 21 21 21 21 21 21 21 20 20 20 19 18 17 17 17 17 16 15 15 16 16 16 16 16 16 15 15 16 15 15 14 12 11 11 10 10 10 10 9 9 7 6 5 5 4
10 11 11 12 12 13 13 14 14 15 15 15 15 15 16 16 16 17 18 19 20 21 22 22 22 21 21 22 22 22 22 21 20 20 18 17 15 15 15 15 15 15 15 14 15 15 15 15 15 14 14 14 14 12 11 9 9 8 8 8 8 8 7 7 5 5 4 4 4
11 11 12 13 13 14 14 15 15 15 15 16 16 16 16 17 17 18 19 20 21 21 22 22 22 22 21 21 21 21 20 19 18 18 17 16 14 13 13 13 14 13 13 13 13 13 14 13 13 13 12 12 11 10 9 8 8 8 7 7 6 6 5 5 4 4 4 4 3
11 12 13 14 14 15 15 16 16 16 16 16 16 16 16 16 17 18 18 19 20 21 21 22 21 21 20 19 19 18 17 17 15 15 14 14 13 13 12 12 12 12 12 11 11 11 11 11 11 11 11 10 10 9 8 8 7 7 7 6 5 5 4 3 3 3 3 3 3
Wind_Direction
259 247 245 243 243 244 246 248 248 247 247 246 245 244 243 243 244 245 245 246 247 248 249 249 249 250 250 249 246 242 239 237 235 233 232 230 229 228 227 228 227 226 225 225 224 223 223 225 228 229 229 228 228 227 228 228 226 224 221 218 215 214 214 214 215 217 218 220 222
37 9 288 259 250 246 246 247 248 248 248 247 247 247 247 246 247 247 247 247 247 249 250 250 250 249 249 249 247 244 242 240 237 234 231 228 226 226 227 229 229 230 230 228 227 224 223 228 230 229 226 225 226 226 227 228 228 225 221 218 216 215 214 213 214 216 217 218 220
32 28 15 340 284 257 248 248 248 249 249 249 249 249 249 249 248 248 248 248 249 250 250 251 251 250 249 251 250 249 247 244 240 236 233 231 229 229 230 231 231 233 232 227 224 225 230 236 235 230 226 225 224 224 225 226 225 222 219 217 215 214 212 212 213 214 214 215 216
21 21 19 8 336 287 264 257 255 253 252 251 251 251 250 249 248 248 249 250 251 251 251 252 253 252 251 252 251 251 249 247 244 241 239 238 236 234 232 230 228 227 225 224 226 232 241 244 237 230 226 226 225 224 224 223 221 218 216 215 214 214 213 212 212 212 211 212 213
7 7 6 3 352 329 298 279 270 264 259 256 254 252 251 250 250 249 249 250 251 252 253 254 254 254 252 250 249 249 249 248 246 243 241 241 239 236 232 228 225 225 225 226 229 236 241 239 232 227 225 225 224 224 223 222 218 214 212 213 213 214 213 212 212 211 210 208 207
358 356 354 353 351 346 332 312 291 278 270 263 258 254 252 251 251 251 251 251 253 254 255 254 253 252 251 249 247 246 246 246 243 241 239 238 237 234 230 227 226 226 227 229 230 231 230 227 223 222 222 222 222 222 222 220 215 211 210 211 212 212 212 211 210 209 207 203 197
352 350 347 345 343 340 336 330 317 301 284 272 264 258 255 254 254 254 254 254 255 255 254 253 252 251 250 248 246 244 243 241 239 236 234 233 232 231 228 227 227 228 228 229 228 225 223 221 218 218 218 217 217 217 217 215 211 209 208 208 210 210 209 208 207 204 199 193 187
347 344 342 340 337 335 332 330 327 320 305 285 272 266 262 259 258 257 257 257 255 253 252 254 253 251 248 246 244 242 240 237 234 232 230 230 229 229 228 228 228 228 228 227 225 222 221 220 218 217 216 214 213 213 212 210 208 207 206 206 207 207 206 204 201 196 190 184 180
346 342 339 336 333 330 327 325 324 322 316 303 289 278 271 267 264 262 260 258 256 254 255 256 255 251 246 243 240 238 236 233 229 228 228 229 229 228 229 229 228 227 226 225 223 221 220 219 217 217 216 214 212 210 209 206 204 204 203 203 202 201 200 197 193 187 183 179 177
346 342 339 336 331 325 321 319 318 317 316 312 306 293 281 274 270 267 264 261 260 259 259 258 255 249 242 237 233 231 229 227 226 226 228 230 230 230 229 229 228 227 225 224 222 219 217 216 214 214 214 213 210 207 205 204 202 200 200 199 197 194 191 188 184 179 177 176 175
347 345 342 337 330 323 317 314 314 312 311 310 308 301 289 280 275 271 268 266 264 262 260 257 251 243 235 230 226 223 222 222 223 226 229 232 232 231 230 230 229 227 225 223 220 216 212 211 211 209 208 207 206 204 203 201 200 198 196 195 192 188 183 179 176 174 173 174 173
349 347 344 339 332 324 317 312 311 310 307 304 302 299 295 288 280 273 269 266 264 260 256 250 242 234 227 223 218 217 218 220 223 226 229 230 231 230 230 229 228 226 224 221 216 211 208 207 206 204 202 202 202 202 201 200 198 196 193 190 187 182 176 172 170 170 171 172 170
352 350 347 343 338 331 322 315 313 313 311 308 303 298 294 291 286 277 268 262 258 253 248 241 233 226 220 217 215 216 218 221 224 225 226 227 227 227 226 224 223 221 218 215 210 206 203 202 202 200 199 200 200 200 199 197 195 193 189 184 179 174 170 167 166 167 168 167 165
355 353 351 350 349 345 337 330 325 323 321 320 316 305 294 288 284 276 264 255 249 244 238 233 224 217 213 213 214 216 219 221 222 222 221 222 222 220 218 215 214 213 210 206 203 201 200 199 200 200 200 199 199 197 195 193 190 188 184 178 172 168 165 163 164 164 163 161 158
0 359 358 358 358 356 353 350 345 340 335 333 328 315 301 289 276 263 251 243 236 232 227 221 213 208 207 209 212 214 216 217 217 215 214 214 213 211 208 207 206 205 202 199 197 196 197 198 199 200 200 198 196 193 190 188 185 181 178 173 168 164 162 160 160 160 158 156 153
6 6 6 6 6 6 6 7 6 2 354 348 337 326 316 297 268 246 233 226 221 218 214 208 202 197 197 200 206 209 211 212 210 208 205 204 203 201 200 200 199 198 196 194 193 193 195 197 198 199 198 195 191 187 183 180 177 173 170 166 163 161 158 157 156 155 155 154 153
13 13 13 14 15 16 17 18 19 15 6 352 344 343 346 329 265 225 213 207 203 198 193 191 189 185 182 185 192 198 202 203 202 199 198 197 196 195 195 194 194 193 192 191 190 191 192 193 194 194 192 188 182 177 173 171 168 165 162 160 157 155 154 153 153 153 154 156 158
18 18 19 20 21 20 20 19 19 17 9 358 356 5 23 39 85 169 186 188 184 177 173 171 171 170 169 171 176 182 188 191 192 193 193 193 193 192 190 189 188 187 187 187 187 187 186 185 184 182 179 174 169 165 162 159 157 155 154 152 149 148 147 148 151 153 156 160 163
20 21 23 24 21 18 16 15 14 10 3 0 0 10 33 63 92 126 152 166 169 167 162 155 151 150 153 157 158 161 165 168 172 175 177 179 181 181 181 180 180 180 180 180 180 180 178 175 171 167 162 158 155 153 151 150 148 147 146 145 143 142 143 146 150 154 159 164 166
23 24 25 25 24 22 21 22 19 13 6 1 7 22 46 75 101 118 128 138 153 159 155 146 136 132 136 142 144 144 142 142 145 147 150 153 157 160 163 166 168 169 171 172 171 168 165 161 158 154 151 149 147 146 144 143 142 141 141 141 141 143 146 150 154 158 162 166 167
25 26 26 27 26 28 30 34 33 28 22 22 35 53 71 87 104 112 118 126 141 150 152 146 138 134 134 136 138 138 136 136 135 134 133 133 134 137 143 149 152 155 157 157 157 155 152 150 148 146 146 145 145 143 142 141 141 141 142 142 144 148 152 156 158 161 163 165 165
25 27 28 28 30 33 36 40 42 43 45 51 60 70 80 89 100 108 115 121 127 131 133 135 137 138 138 138 137 137 136 135 134 132 131 129 128 129 133 138 141 141 142 143 145 145 145 144 144 144 144 143 142 142 142 141 141 141 142 144 147 151 154 157 158 159 159 159 161
25 27 30 33 37 42 46 49 51 54 59 64 69 75 81 88 97 105 110 113 114 113 113 115 121 129 135 138 139 138 136 134 134 135 136 137 136 135 137 140 140 139 138 140 142 143 142 141 141 142 142 141 139 139 140 140 141 141 142 144 147 149 151 153 154 155 155 155 157
30 34 39 43 48 53 57 61 63 65 66 67 70 75 81 87 94 98 100 101 101 101 101 103 109 118 126 131 135 137 137 136 136 138 141 143 143 144 145 148 147 145 144 145 146 146 145 142 140 139 139 138 137 138 139 140 141 142 143 144 145 146 147 149 150 151 152 153 156
42 47 52 56 58 60 64 69 70 72 72 73 75 79 82 86 90 93 93 93 93 95 99 103 109 115 121 126 131 135 138 141 143 144 145 145 146 148 148 148 148 147 146 146 148 149 147 145 142 140 138 138 137 138 139 140 141 142 143 143 144 145 146 147 149 150 152 154 159
56 59 60 61 62 64 66 70 72 74 77 80 82 84 85 87 89 91 92 91 92 95 100 104 108 113 118 123 127 132 136 140 144 145 144 142 142 142 142 141 140 139 140 141 144 144 144 144 143 142 140 138 138 137 137 138 140 141 142 143 144 145 146 147 149 151 154 158 165
62 63 64 65 66 67 70 72 76 79 81 82 83 84 86 89 91 93 93 93 95 98 102 105 108 112 117 121 125 128 130 133 136 137 137 136 135 133 132 132 131 131 132 135 136 137 138 139 141 142 141 139 138 137 136 136 138 140 141 142 144 146 148 149 151 154 156 159 163
65 68 69 70 70 70 73 76 79 81 83 83 83 85 87 89 91 93 95 96 99 101 104 106 110 114 117 117 118 120 121 123 124 125 126 126 125 124 123 123 124 125 128 131 132 132 132 134 137 140 141 139 138 137 137 136 137 138 139 140 142 145 147 148 146 144 141 138 136
69 71 73 72 72 72 75 77 79 81 83 84 84 85 86 88 90 92 94 97 99 100 102 105 109 111 110 109 110 111 112 113 114 115 115 114 114 114 115 117 120 123 126 128 127 127 127 129 133 137 140 140 138 137 136 135 136 137 137 138 139 139 137 134 129 123 118 114 111
72 73 73 74 74 74 75 77 79 82 84 85 84 84 84 84 85 86 89 92 93 96 99 103 105 104 103 104 105 106 106 107 108 108 108 107 108 109 112 115 118 122 124 125 123 122 122 124 129 133 136 137 136 135 134 134 135 134 132 130 128 125 121 116 111 107 104 100 97
72 73 74 75 75 75 75 77 79 82 85 86 85 85 83 81 80 80 82 85 89 93 98 100 100 100 101 103 104 104 104 105 105 106 106 107 108 110 112 114 115 118 120 119 117 116 116 119 124 129 132 133 133 133 133 132 129 125 121 117 114 110 107 104 100 98 96 94 93
73 74 75 75 75 76 76 76 77 81 84 85 86 86 85 83 82 82 83 86 89 92 94 95 96 98 100 102 102 103 104 104 105 106 107 108 109 109 109 108 108 111 114 114 112 111 113 118 123 126 128 128 128 128 127 124 119 114 109 106 103 100 98 97 96 95 95 96 97
73 75 76 76 75 76 76 75 76 79 81 82 83 84 85 86 86 86 87 88 89 90 90 92 94 97 99 101 102 103 104 105 106 107 107 107 105 103 100 99 101 103 105 106 107 109 113 117 121 122 122 121 120 118 116 113 108 105 102 100 98 96 95 95 96 97 98 99 103
74 76 77 76 76 75 75 76 77 79 79 79 80 81 83 85 86 87 88 90 91 92 92 93 95 97 99 101 102 104 105 106 106 105 104 103 102 100 97 96 97 98 99 101 104 107 110 113 114 114 114 112 110 107 105 103 102 101 101 101 100 100 99 98 98 98 98 100 103
74 76 77 77 77 77 78 79 80 81 80 79 79 80 81 84 86 88 91 94 96 96 96 96 97 98 98 99 99 100 101 102 102 102 102 102 101 99 97 95 96 97 97 99 100 101 101 102 103 103 103 102 100 99 99 101 102 103 105 105 105 104 102 99 97 95 93 90 88
73 76 78 79 79 80 81 83 83 83 82 81 82 82 83 85 87 91 96 99 100 99 98 98 99 99 98 97 97 97 98 99 100 101 102 103 102 100 98 97 95 94 92 92 91 91 90 91 92 93 94 96 98 100 102 104 106 107 107 106 105 102 99 96 91 86 81 77 74
74 78 81 82 82 83 85 86 86 86 85 85 85 86 87 89 91 95 100 103 102 100 100 101 101 100 99 99 98 98 99 101 102 103 104 104 104 102 100 98 95 91 89 87 87 87 86 86 87 88 91 96 102 105 108 109 109 109 107 105 103 101 97 93 87 81 75 68 64
75 80 84 85 86 87 89 90 90 89 89 90 90 92 93 94 95 98 102 105 104 102 101 102 101 101 103 104 104 104 104 105 106 106 106 106 106 104 102 100 96 93 90 89 88 88 87 85 86 88 92 99 105 109 111 112 113 112 110 107 105 101 97 92 87 80 71 64 58
82 87 90 91 92 92 92 92 92 92 94 95 96 97 98 98 98 100 104 107 107 106 105 103 103 105 107 110 110 109 109 109 110 110 110 109 108 106 103 101 99 97 95 93 90 89 88 87 88 90 95 101 107 112 114 116 117 116 113 110 106 101 96 90 84 76 65 55 52
93 98 100 100 99 98 97 95 95 96 98 99 99 99 100 101 102 105 108 109 110 110 109 107 108 109 112 113 113 113 113 114 115 116 116 116 115 111 107 103 102 101 99 96 93 92 92 92 92 94 97 103 110 115 118 119 118 116 114 112 110 106 100 90 79 65 49 36 35
99 103 105 104 104 102 101 99 98 99 99 100 100 100 102 105 107 109 110 111 111 111 111 111 112 113 114 114 114 114 115 116 118 120 122 124 124 120 115 109 105 103 103 103 101 101 100 99 96 95 97 103 111 116 118 118 117 117 116 115 114 112 107 95 73 50 29 14 12